クリステンセン彗星

383P/Christensen (2019)

English version
Home page
Updated on March 5, 2020

---------------------------------------------------------------------

・ プロフィール

符号 383P/2019 M1
検出日 2019年6月25日
検出光度 19.9等
検出者 K. Sarneczky (Konkoly Observatory)

・ 軌道要素

Epoch 2019 Nov. 13.0 TT = JDT 2458800.5                                         
T 2019 Oct. 26.20379 TT                                 Williams                
q   1.4192093            (2000.0)            P               Q                  
n   0.14779704     Peri.  133.61602     +0.94059849     +0.32450427             
a   3.5429000      Node   207.89827     -0.33883960     +0.91581610             
e   0.5994216      Incl.   12.32251     +0.02149878     +0.23659639             
P   6.67                                                                        
From 300 observations 2006 Sept. 16-2019 July 8, mean residual 0".6.            

・ 光度変化

        m1 = 17.0 + 5 logΔ + 10.0 log r

---------------------------------------------------------------------

軌道要素はM.P.E.C. 2019-T169に掲載されたものです。
光度グラフはComet for Windowsで作成したものです。

---------------------------------------------------------------------

Copyright(C) Seiichi Yoshida (comet@aerith.net). All rights reserved.